Wind_Speed
17 17 17 17 17 15 13 9 10 15 18 18 21 19 19 19 18 18 19 22 21 21 20 19 21 21 21 16 16 14 13 13 11 7 2 8 8 8 8 5 6 7 8
13 14 17 17 16 15 16 10 10 14 19 18 17 15 17 18 16 16 18 19 22 21 18 19 18 18 20 18 16 16 14 11 12 5 6 7 9 9 10 8 6 7 4
14 15 12 15 16 15 14 13 10 7 11 16 16 18 19 21 20 19 19 18 21 20 19 18 20 19 17 19 20 17 15 11 10 8 9 11 9 10 9 9 8 7 6
14 14 13 10 13 15 14 13 10 8 10 15 15 18 20 17 16 17 16 14 18 20 17 18 19 21 20 20 18 21 15 13 12 10 11 11 11 12 9 9 9 8 5
15 14 15 10 8 11 13 13 12 11 8 10 14 14 15 16 16 16 15 13 16 19 19 21 22 24 23 25 25 23 19 17 15 15 14 14 14 12 12 11 7 6 7
17 16 14 16 6 10 10 11 11 12 11 10 10 12 16 19 17 17 19 14 13 18 22 22 24 27 30 28 30 24 25 21 20 17 18 15 15 14 11 8 9 7 6
19 17 16 16 11 10 11 11 11 11 10 9 11 11 12 16 20 23 28 28 30 26 26 26 25 24 30 29 31 32 23 28 23 20 16 13 7 12 10 8 8 6 9
21 20 18 17 19 12 7 13 10 11 12 13 13 13 15 16 17 20 23 29 31 27 26 24 24 24 27 28 32 34 36 31 35 31 22 17 12 8 10 7 6 4 11
23 22 21 19 18 21 13 9 12 12 12 12 11 13 16 17 18 18 19 24 29 29 26 26 25 28 30 29 30 32 41 40 33 34 33 23 19 14 15 10 8 8 12
22 23 23 22 19 20 21 14 13 13 16 13 13 13 16 17 17 21 18 19 24 25 27 28 29 33 32 38 37 33 31 34 35 31 32 25 21 21 20 18 10 10 13
24 23 23 24 24 22 23 20 14 14 16 15 13 14 15 15 12 18 17 18 22 23 22 23 27 30 31 35 33 35 33 32 34 34 33 24 26 25 24 22 17 13 10
24 25 24 24 26 26 24 22 18 16 16 17 15 14 12 10 13 17 18 19 18 19 18 22 24 24 27 29 32 36 41 36 37 34 29 29 22 23 25 19 16 14 12
22 23 24 26 24 27 28 20 20 19 17 18 17 12 11 12 12 16 20 17 19 16 18 23 23 21 21 19 20 25 33 41 33 33 35 33 32 28 20 15 17 10 13
20 24 23 23 25 26 29 22 21 23 20 17 14 11 12 14 13 12 18 20 17 15 18 16 16 18 21 19 17 21 20 18 29 28 26 25 28 26 19 16 16 15 14
21 21 19 21 21 25 25 24 24 21 7 7 9 8 9 9 11 15 17 20 18 17 15 14 18 22 20 21 17 18 18 20 13 8 21 20 16 18 20 21 22 21 16
19 20 18 19 20 21 20 20 16 11 10 11 7 5 5 4 8 11 14 16 15 12 10 11 7 15 15 15 16 16 22 26 23 19 16 15 16 17 17 20 21 18 15
19 21 17 18 19 19 20 15 19 11 10 6 4 3 3 4 7 11 13 12 12 10 9 7 3 9 9 13 17 20 18 18 20 18 19 17 19 20 24 23 25 21 17
18 18 19 20 19 19 19 21 22 18 7 8 9 7 6 5 6 9 10 7 12 5 5 4 2 5 11 12 13 13 13 13 12 14 15 17 19 21 19 18 18 18 17
20 19 16 18 17 13 11 16 19 23 16 10 10 6 7 5 5 5 5 5 6 8 4 4 2 14 8 9 11 10 12 12 11 10 9 14 17 18 17 15 16 19 17
17 17 16 18 18 15 14 15 15 13 17 13 9 7 5 3 3 2 4 5 6 7 7 4 5 13 7 9 9 8 9 9 11 11 11 11 12 14 13 12 12 12 13
21 20 17 17 17 13 9 10 12 11 11 11 6 4 5 4 4 3 3 9 11 9 11 10 5 11 14 11 8 7 4 5 5 7 7 5 5 7 6 7 8 8 8
22 20 20 17 15 9 11 4 8 6 7 10 8 6 7 4 6 5 6 7 8 9 8 8 8 7 15 11 9 6 2 1 1 3 4 4 5 4 5 6 6 6 6
21 18 16 18 14 7 7 1 7 2 8 12 13 13 11 11 10 10 10 8 10 10 11 7 8 9 10 14 7 6 5 5 4 1 1 4 5 5 7 8 9 9 10
18 12 10 10 5 3 3 11 13 18 19 19 20 19 19 18 16 15 13 10 9 9 10 12 12 11 10 7 6 6 3 2 2 1 4 5 4 5 5 6 7 8 10
7 6 3 2 10 16 17 19 21 21 21 21 21 21 20 19 17 15 13 12 13 15 13 11 12 12 10 11 9 5 3 5 4 5 8 8 7 6 4 4 5 6 7
24 23 23 24 23 23 22 21 22 23 22 21 21 19 17 16 15 15 16 15 15 16 15 16 15 14 10 14 12 10 11 12 8 8 7 9 8 5 4 4 4 4 5
Wind_Direction
10 10 12 10 9 354 341 309 274 228 219 209 206 212 211 210 210 214 221 222 217 214 205 198 207 208 234 232 235 236 239 247 257 264 152 171 185 217 240 256 261 268 278
358 0 3 359 360 5 355 328 294 249 211 197 185 216 227 221 224 231 233 228 219 219 215 212 214 211 218 232 232 227 227 234 255 247 202 201 215 220 225 239 253 261 260
345 341 357 352 352 354 354 352 330 294 223 232 234 227 229 237 241 240 238 228 220 227 235 224 216 217 214 221 225 222 219 222 237 258 218 227 221 213 230 238 237 251 264
329 329 328 342 343 344 345 347 347 331 286 269 262 244 240 240 238 237 232 234 236 220 231 243 243 222 212 212 227 233 216 206 220 229 227 214 218 219 217 246 225 217 238
315 315 305 309 323 331 335 341 341 339 325 295 283 267 255 245 245 239 231 244 230 229 225 239 244 242 228 215 215 216 219 209 211 221 226 222 212 211 218 220 228 250 241
306 302 304 292 305 305 318 326 330 334 332 326 309 291 270 260 258 237 237 249 237 239 244 242 245 246 235 228 221 218 213 212 214 219 231 225 221 211 229 228 235 249 265
301 294 290 286 268 288 301 310 320 320 317 311 309 298 287 276 266 255 248 251 262 260 249 247 242 239 239 228 225 231 228 217 222 231 249 275 289 199 233 219 251 258 276
293 291 285 283 286 256 266 295 302 309 314 316 314 307 299 290 287 272 260 258 258 257 255 249 239 233 229 234 225 229 229 239 229 227 228 242 255 248 206 226 263 262 276
291 286 283 278 276 286 246 256 280 289 295 296 297 298 291 290 291 289 283 265 260 256 256 250 247 242 237 234 231 226 232 233 231 227 229 220 232 234 217 198 219 226 262
287 289 285 282 275 274 282 253 262 275 281 285 297 300 297 295 297 306 283 264 251 248 253 251 255 252 252 240 232 224 221 218 213 210 222 219 223 231 226 228 222 259 275
289 285 282 279 277 270 269 262 257 265 277 285 291 291 294 292 305 305 303 294 268 254 245 247 253 252 250 248 242 227 226 223 209 206 205 217 234 233 231 231 224 229 251
290 289 284 276 271 267 262 251 246 251 264 265 268 278 290 304 303 312 309 299 296 271 267 249 248 252 255 249 246 245 240 233 202 202 202 203 209 214 222 224 228 237 235
286 282 280 291 287 269 266 254 241 239 243 262 264 280 289 301 310 313 314 315 297 303 279 263 262 257 257 256 254 255 257 245 228 220 211 206 197 213 211 211 224 213 221
276 272 277 270 272 277 270 268 236 245 244 249 266 282 301 310 318 324 320 320 307 305 303 281 258 239 240 258 260 255 266 241 223 200 194 197 190 180 184 205 201 202 214
293 285 284 281 265 265 267 262 242 247 252 258 265 286 298 310 325 325 332 329 318 298 290 282 273 257 246 244 238 240 236 223 218 193 173 194 210 215 221 225 222 204 215
304 294 291 290 277 276 264 253 228 216 252 241 242 249 276 309 325 328 329 323 319 302 283 283 289 268 234 223 207 200 216 220 218 212 206 209 215 221 215 205 204 195 190
299 301 293 282 288 280 263 252 205 207 223 235 249 231 234 244 311 319 318 324 333 325 307 297 329 269 241 205 196 197 201 216 216 213 220 218 208 210 192 187 184 183 199
307 298 295 290 294 279 269 252 251 261 265 233 237 225 261 287 311 318 318 324 341 328 336 22 43 83 275 185 179 190 193 192 193 194 191 187 188 187 181 187 193 192 195
311 309 303 296 288 284 290 282 262 233 226 246 201 220 237 270 305 330 349 347 18 9 338 91 128 100 252 112 116 138 151 158 160 162 165 177 175 182 184 193 198 208 203
302 295 292 287 282 282 288 302 268 242 228 235 219 218 199 233 257 336 15 31 38 33 5 353 68 72 40 72 104 120 123 143 142 156 171 173 177 186 188 197 200 208 216
307 304 286 284 282 273 291 312 286 236 222 210 177 157 154 127 96 34 81 68 55 41 22 33 38 93 75 42 41 50 104 141 157 151 136 173 177 183 192 203 202 207 203
293 287 281 274 277 277 266 315 314 287 178 165 147 124 126 96 106 90 73 58 60 45 40 38 40 38 83 74 28 8 33 101 119 123 153 176 184 193 191 192 188 190 198
294 271 260 255 259 261 262 273 336 85 115 102 101 94 82 78 73 67 54 46 58 57 50 46 59 50 52 71 48 6 357 11 4 14 192 188 190 200 202 199 195 192 199
314 249 233 240 252 254 59 88 94 88 89 92 93 93 90 87 78 71 70 73 70 77 72 68 66 59 52 48 71 35 345 302 332 267 199 161 153 184 179 189 188 198 201
52 101 153 330 85 89 87 83 84 86 88 89 87 87 90 90 81 79 77 80 79 75 68 66 66 60 59 72 62 43 54 70 85 87 99 106 119 145 159 182 188 190 195
58 67 72 76 77 80 82 84 87 88 87 87 87 87 87 78 69 80 74 77 84 80 75 64 62 61 52 70 65 75 81 78 91 115 104 81 81 82 106 142 157 175 201
Height
773 772 770 769 766 765 762 760 759 761 762 763 767 770 772 773 774 774 776 778 777 777 775 773 777 779 789 793 796 796 796 797 796 793 796 801 804 806 807 806 806 806 804
773 772 771 770 768 766 763 762 760 759 760 761 765 768 770 771 773 774 774 774 776 775 774 774 777 779 781 787 790 792 792 793 794 793 796 800 803 803 804 804 804 805 803
776 773 771 771 769 767 765 763 761 759 760 761 763 764 766 767 767 769 770 770 769 773 775 775 775 777 778 784 787 788 789 791 794 792 794 799 800 801 802 801 800 801 800
778 775 771 771 770 768 766 764 761 760 760 760 760 760 761 761 763 765 766 767 767 766 771 774 775 776 773 779 784 786 785 786 791 792 792 796 798 798 798 799 797 797 797
778 775 773 769 769 769 767 765 763 760 759 758 757 757 757 758 759 762 763 763 763 765 765 768 770 776 773 773 778 780 782 784 785 789 788 791 793 795 795 793 794 794 794
776 773 771 769 767 768 767 765 763 761 758 756 756 756 755 755 755 757 760 760 760 762 762 763 765 767 770 769 773 772 775 779 781 782 783 783 786 789 792 792 792 791 791
774 771 768 766 764 766 765 764 762 760 759 756 755 753 753 752 752 753 755 756 756 756 756 756 757 757 763 764 766 771 770 774 778 779 780 781 782 784 789 791 792 792 792
772 769 767 764 761 760 763 764 761 759 757 753 751 750 750 749 748 749 749 749 748 747 747 748 750 753 755 758 759 764 766 768 771 774 775 778 780 783 784 788 790 789 791
770 766 763 761 760 758 754 758 760 759 756 753 750 749 748 745 744 743 742 741 741 740 740 741 744 746 748 752 752 754 756 759 762 765 770 771 776 779 781 784 786 786 787
767 765 762 759 757 757 755 754 755 756 752 749 747 744 744 741 741 737 735 736 734 733 733 734 735 737 740 742 743 746 748 749 755 754 763 765 770 776 778 780 781 783 784
764 761 759 757 755 753 752 752 751 752 750 747 742 742 739 736 736 734 732 730 728 726 725 727 727 729 732 734 735 737 739 744 745 747 751 757 765 769 772 775 776 780 780
762 758 754 753 751 747 745 746 746 746 746 743 740 738 733 733 734 731 728 726 723 720 720 719 720 722 723 726 728 730 733 735 733 737 741 744 755 764 766 769 770 771 776
758 755 752 749 746 744 740 740 742 741 740 738 734 730 730 731 730 726 724 721 720 717 716 716 715 717 718 718 719 723 726 726 724 726 727 736 743 754 759 763 767 762 771
751 749 746 744 742 740 736 736 735 734 729 729 729 727 726 726 725 723 722 718 716 712 712 708 710 712 712 713 713 716 717 719 716 717 724 732 739 745 751 757 761 758 766
745 742 740 737 735 734 732 731 730 730 726 727 727 727 727 724 724 722 720 716 714 712 710 707 708 709 708 709 709 712 714 716 718 718 720 727 733 739 744 748 752 755 762
742 739 735 734 731 729 727 726 725 725 724 725 725 725 726 722 722 722 720 717 714 712 707 707 705 709 706 706 707 709 710 711 714 717 722 726 729 735 740 744 747 751 755
738 735 732 729 725 723 721 721 716 719 721 722 721 722 722 721 721 721 719 717 713 709 705 707 702 709 704 703 704 706 707 709 711 715 717 719 726 729 733 737 740 745 753
733 731 729 724 722 719 717 715 716 720 716 718 719 720 720 720 720 720 720 717 714 711 709 706 708 705 708 703 702 706 706 708 712 714 716 718 723 727 731 735 741 744 749
731 727 725 723 719 716 713 712 711 710 712 715 717 716 717 717 718 720 719 718 716 715 713 709 712 705 708 700 704 706 706 710 712 714 716 720 722 727 732 736 739 744 747
727 725 723 719 715 713 711 709 707 706 708 711 712 714 716 716 717 719 719 718 717 716 716 716 712 708 709 705 709 711 711 716 715 718 721 722 725 728 732 734 737 741 743
723 721 718 716 711 710 709 708 705 703 706 709 713 713 715 717 719 720 721 719 719 717 717 717 716 713 709 712 714 714 716 717 719 719 719 725 726 728 729 732 734 737 740
720 717 715 711 710 709 708 708 708 707 708 708 711 715 718 718 720 721 722 722 720 719 719 718 719 718 707 712 718 720 721 722 723 721 723 724 726 728 729 731 731 734 738
712 710 709 708 707 706 706 709 706 708 704 712 715 717 719 720 722 724 725 725 723 722 720 722 720 719 717 710 719 724 724 724 725 723 724 725 725 727 729 730 732 734 736
704 704 706 705 706 707 707 710 713 713 715 718 720 722 723 725 727 727 727 728 727 726 726 725 724 722 719 724 720 722 726 727 726 724 723 722 724 726 728 731 731 733 735
705 706 708 709 709 711 713 715 717 719 721 723 725 727 729 730 731 732 731 731 730 729 730 731 729 727 728 725 724 725 729 728 726 726 724 722 723 725 729 731 732 732 733
714 713 712 714 716 718 720 722 724 726 728 730 731 732 734 734 735 735 735 734 733 733 734 733 733 734 734 730 731 733 732 729 731 729 728 725 725 727 729 730 730 731 734